Regional Weather Roundup
Issued by NWS Nashville, TN

Home | Current Version | Previous Version | Text Only | Print | Product List | Glossary On
Versions: 1 2 3 4 5 6 7 8 9 10 11 12 13 14 15 16 17 18 19 20 21 22 23 24 25 26 27 28 29 30 31 32 33 34 35 36 37 38 39 40 41 42 43 44 45 46 47 48 49 50
000
ASUS44 KOHX 212015
RWROHX
MIDDLE TENNESSEE HOURLY WEATHER ROUNDUP
NATIONAL WEATHER SERVICE NASHVILLE TN
200 PM CST FRI NOV 21 2014

NOTE: "FAIR" INDICATES FEW OR NO CLOUDS BELOW 12,000 FEET WITH
NO SIGNIFICANT WEATHER AND/OR OBSTRUCTIONS TO VISIBILITY.

* THESE REPORTS ARE NOT UNDER NWS QUALITY CONTROL AND MAY NOT
  REPORT WEATHER SUCH AS PRECIPITATION AND FOG.


TNZ005>011-023>034-057-059-062>066-078-080-212100
...NORTHERN MIDDLE TENNESSEE...

CITY           SKY/WX    TMP DP  RH WIND       PRES   REMARKS
CLARKSVILLE    MOSUNNY   49  23  36 E10       30.37F
CROSSVILLE     SUNNY     52  17  25 CALM      30.38S
GALLATIN         N/A     49  20  32 NE5       30.41F
DICKSON        MOSUNNY   52  23  32 VRB5      30.33F
LEBANON        SUNNY     49  18  29 E6        30.38F
NASHVILLE      MOSUNNY   51  22  31 E6        30.39F
WEST NASHVILLE   N/A     48  19  32 E5        30.38F
PORTLAND         N/A     46  16  29 E7        30.38F
SMYRNA         SUNNY     54  22  28 VRB6      30.39F
SPARTA         SUNNY     54  19  26 CALM      30.38F
$$
TNZ056-058-060-061-075>077-079-093>097-212100
...SOUTHERN MIDDLE TENNESSEE...

CITY           SKY/WX    TMP DP  RH WIND       PRES   REMARKS
COLUMBIA       PTSUNNY   55  30  38 SE7       30.34F
LEWISBURG      SUNNY     55  27  34 VRB5      30.36F
MCMINNVILLE    SUNNY     54  23  30 CALM      30.37F
MURFREESBORO   SUNNY     52  23  32 E6        30.38F
SHELBYVILLE    SUNNY     55  28  35 E5        30.37F
TULLAHOMA      SUNNY     55  27  33 CALM      30.36F
WINCHESTER     SUNNY     57  36  44 VRB3      30.35F
$$


...KEY TO REMARKS...
VSB - VISIBILITY IN MILES
WCI - WIND CHILL INDEX
HX  - HEAT INDEX



USA.gov is the U.S. government's official web portal to all federal, state and local government web resources and services.